Terminal Aerodrome Forecast
Issued by NWS Los Angeles, CA

Home | Current Version | Previous Version | Text Only | Print | Product List | Glossary On
Versions: 1 2 3 4 5 6 7 8 9 10 11 12 13 14 15 16 17 18 19 20 21 22 23 24 25 26 27 28 29 30 31 32 33 34
000
FTUS46 KLOX 251720
TAFSMX
TAF
KSMX 251720Z 2518/2618 27003KT 3SM BR BKN006
     FM251830 31006KT P6SM SCT006
     FM252000 31012KT P6SM SKC
     FM260400 VRB05KT P6SM BKN004
     FM260700 VRB03KT 2SM BR OVC002=

USA.gov is the U.S. government's official web portal to all federal, state and local government web resources and services.